Weather History for Rockland, ME

Change the Weather History Date:

Saturday, February 23, 2013

  Actual Average Record
Temperature  
Mean Temperature 30 °F -  
Max Temperature 35 °F 32 °F 44 °F (2012)
Min Temperature 26 °F 18 °F 3 °F (1999)
Degree Days  
Heating Degree Days 34    
Moisture  
Dew Point 26 °F    
Average Humidity 80    
Maximum Humidity 100    
Minimum Humidity 69    
Precipitation  
Precipitation 0.00 in - - ()
Sea Level Pressure  
Sea Level Pressure 30.22 in    
Wind  
Wind Speed 7 mph (East)    
Max Wind Speed 15 mph    
Max Gust Speed 20 mph    
Visibility 10 miles    
Events      
Averages and records for this station are not official NWS values.
T = Trace of Precipitation, MM = Missing Value Source: NWS Daily Summary

Daily Weather History Graph

Daily Weather History Graph

Search for Another Location

Airport:

Trip Planner

Search our weather history database for the weather conditions in past years. The results will help you decide how hot, cold, wet, or windy it might be!

Date:

Astronomy

Feb. 23, 2013 Rise Set
Actual Time 6:22 AM EST 5:17 PM EST
Civil Twilight 5:53 AM EST 5:46 PM EST
Nautical Twilight 5:20 AM EST 6:19 PM EST
Astronomical Twilight 4:46 AM EST 6:53 PM EST
Moon 3:21 PM EST (2/23) 4:46 AM EST (2/23)
Length of Visible Light 11h 52m
Length of Day
10h 54m
Waxing Gibbous, 95% of the Moon is Illuminated
Feb 23
Waxing Gibbous
Feb 25
Full
Mar 4
Last Quarter
Mar 11
New
Mar 19
First Quarter

Hourly Weather History & Observations

Time (EST) Temp. Windchill Dew Point Humidity Pressure Visibility Wind Dir Wind Speed Gust Speed Precip Events Conditions
12:15 AM 30.2 °F 23.4 °F 21.2 °F 69% 30.35 in 10.0 mi NE 6.9 mph - N/A   Clear
12:35 AM 30.2 °F 25.4 °F 21.2 °F 69% 30.35 in 10.0 mi NE 4.6 mph - N/A   Clear
12:55 AM 30.2 °F 25.4 °F 21.2 °F 69% 30.35 in 10.0 mi NE 4.6 mph - N/A   Clear
1:15 AM 28.4 °F 23.3 °F 21.2 °F 74% 30.35 in 10.0 mi NE 4.6 mph - N/A   Clear
1:35 AM 28.4 °F 24.6 °F 21.2 °F 74% 30.34 in 10.0 mi NE 3.5 mph - N/A   Clear
1:55 AM 28.4 °F 24.6 °F 21.2 °F 74% 30.34 in 10.0 mi NNE 3.5 mph - N/A   Clear
2:15 AM 28.4 °F 22.2 °F 21.2 °F 74% 30.33 in 10.0 mi NE 5.8 mph - N/A   Clear
2:35 AM 28.4 °F 23.3 °F 21.2 °F 74% 30.32 in 10.0 mi NE 4.6 mph - N/A   Clear
2:55 AM 28.4 °F 22.2 °F 21.2 °F 74% 30.31 in 10.0 mi NE 5.8 mph - N/A   Clear
3:15 AM 26.6 °F 21.2 °F 21.2 °F 80% 30.31 in 10.0 mi NNE 4.6 mph - N/A   Clear
3:35 AM 26.6 °F 21.2 °F 23.0 °F 86% 30.31 in 10.0 mi NNE 4.6 mph - N/A   Mostly Cloudy
3:55 AM 28.4 °F 24.6 °F 23.0 °F 80% 30.30 in 10.0 mi NNE 3.5 mph - N/A   Overcast
4:15 AM 28.4 °F 23.3 °F 24.8 °F 86% 30.30 in 10.0 mi NNE 4.6 mph - N/A   Overcast
4:35 AM 28.4 °F 24.6 °F 24.8 °F 86% 30.30 in 10.0 mi North 3.5 mph - N/A   Overcast
4:55 AM 28.4 °F 20.4 °F 24.8 °F 86% 30.30 in 10.0 mi NNE 8.1 mph - N/A   Overcast
5:15 AM 28.4 °F 21.2 °F 24.8 °F 86% 30.30 in 10.0 mi NNE 6.9 mph - N/A   Overcast
5:35 AM 28.4 °F 22.2 °F 24.8 °F 86% 30.30 in 10.0 mi NNE 5.8 mph - N/A   Overcast
5:55 AM 28.4 °F 23.3 °F 24.8 °F 86% 30.30 in 10.0 mi NNE 4.6 mph - N/A   Overcast
6:15 AM 28.4 °F 23.3 °F 24.8 °F 86% 30.30 in 10.0 mi NNE 4.6 mph - N/A   Overcast
6:35 AM 28.4 °F 23.3 °F 24.8 °F 86% 30.30 in 10.0 mi NNE 4.6 mph - N/A   Overcast
6:55 AM 30.2 °F 25.4 °F 24.8 °F 80% 30.30 in 10.0 mi NE 4.6 mph - N/A   Overcast
7:15 AM 30.2 °F 26.7 °F 26.6 °F 86% 30.30 in 10.0 mi NNE 3.5 mph - N/A   Overcast
7:35 AM 30.2 °F 23.4 °F 26.6 °F 86% 30.30 in 10.0 mi NNE 6.9 mph - N/A   Overcast
7:55 AM 30.2 °F 24.3 °F 26.6 °F 86% 30.29 in 10.0 mi NNE 5.8 mph - N/A   Overcast
8:15 AM 30.2 °F 25.4 °F 26.6 °F 86% 30.29 in 10.0 mi NNE 4.6 mph - N/A   Overcast
8:35 AM 30.2 °F 24.3 °F 26.6 °F 86% 30.28 in 10.0 mi NNE 5.8 mph - N/A   Overcast
8:55 AM 30.2 °F 24.3 °F 26.6 °F 86% 30.28 in 10.0 mi NE 5.8 mph - N/A   Overcast
9:15 AM 30.2 °F 25.4 °F 28.4 °F 93% 30.27 in 10.0 mi NE 4.6 mph - N/A   Overcast
9:35 AM 30.2 °F 25.4 °F 28.4 °F 93% 30.27 in 10.0 mi NNE 4.6 mph - N/A   Overcast
9:55 AM 32.0 °F 25.6 °F 28.4 °F 87% 30.26 in 10.0 mi NE 6.9 mph - N/A   Overcast
10:15 AM 32.0 °F 28.7 °F 28.4 °F 87% 30.26 in 10.0 mi ESE 3.5 mph - N/A   Overcast
10:35 AM 35.6 °F 29.9 °F 26.6 °F 70% 30.26 in 10.0 mi SE 6.9 mph - N/A   Overcast
10:55 AM 35.6 °F 28.6 °F 26.6 °F 70% 30.25 in 10.0 mi SE 9.2 mph - N/A   Overcast
11:15 AM 35.6 °F 27.5 °F 26.6 °F 70% 30.24 in 10.0 mi SE 11.5 mph - N/A   Overcast
11:35 AM 35.6 °F 27.5 °F 26.6 °F 70% 30.24 in 10.0 mi SE 11.5 mph - N/A   Overcast
11:55 AM 35.6 °F 28.0 °F 26.6 °F 70% 30.23 in 10.0 mi SE 10.4 mph - N/A   Overcast
12:15 PM 35.6 °F 27.1 °F 26.6 °F 70% 30.23 in 10.0 mi SE 12.7 mph - N/A   Overcast
12:35 PM 33.8 °F 25.8 °F 26.6 °F 75% 30.22 in 10.0 mi ESE 10.4 mph - N/A   Overcast
12:55 PM 33.8 °F 27.0 °F 26.6 °F 75% 30.21 in 10.0 mi ESE 8.1 mph - N/A   Overcast
1:15 PM 33.8 °F 25.8 °F 26.6 °F 75% 30.20 in 10.0 mi ESE 10.4 mph - N/A   Overcast
1:35 PM 33.8 °F 24.8 °F 26.6 °F 75% 30.20 in 10.0 mi ESE 12.7 mph - N/A   Overcast
1:55 PM 33.8 °F 26.4 °F 26.6 °F 75% 30.20 in 10.0 mi ESE 9.2 mph - N/A   Overcast
2:15 PM 33.8 °F 24.8 °F 26.6 °F 75% 30.19 in 10.0 mi ESE 12.7 mph - N/A   Overcast
2:35 PM 33.8 °F 25.8 °F 26.6 °F 75% 30.20 in 10.0 mi ESE 10.4 mph - N/A   Overcast
2:55 PM 33.8 °F 25.3 °F 28.4 °F 81% 30.20 in 10.0 mi ESE 11.5 mph - N/A   Overcast
3:15 PM 33.8 °F 25.8 °F 28.4 °F 81% 30.19 in 10.0 mi ESE 10.4 mph - N/A   Overcast
3:35 PM 33.8 °F 25.8 °F 28.4 °F 81% 30.18 in 10.0 mi ESE 10.4 mph - N/A   Overcast
3:55 PM 33.8 °F 24.3 °F 28.4 °F 81% 30.17 in 10.0 mi ESE 13.8 mph 19.6 mph N/A   Overcast
4:15 PM 33.8 °F 25.3 °F 28.4 °F 81% 30.16 in 10.0 mi ESE 11.5 mph 16.1 mph N/A   Overcast
4:35 PM 33.8 °F 24.3 °F 28.4 °F 81% 30.16 in 10.0 mi SE 13.8 mph - N/A   Overcast
4:55 PM 33.8 °F 25.8 °F 28.4 °F 81% 30.16 in 10.0 mi SE 10.4 mph - N/A   Overcast
5:15 PM 33.8 °F 24.3 °F 28.4 °F 81% 30.15 in 10.0 mi SE 13.8 mph 17.3 mph N/A   Overcast
5:35 PM 33.8 °F 24.8 °F 28.4 °F 81% 30.14 in 10.0 mi ESE 12.7 mph 17.3 mph N/A   Overcast
5:55 PM 33.8 °F 23.9 °F 28.4 °F 81% 30.13 in 10.0 mi ESE 15.0 mph - N/A   Overcast
6:15 PM 33.8 °F 24.3 °F 28.4 °F 81% 30.14 in 10.0 mi ESE 13.8 mph - N/A   Overcast
6:55 PM 33.8 °F 25.8 °F 26.6 °F 75% 30.14 in 10.0 mi ESE 10.4 mph - N/A   Overcast
7:15 PM 33.8 °F 26.4 °F 26.6 °F 75% 30.14 in 10.0 mi SE 9.2 mph - N/A   Overcast
7:35 PM 33.8 °F 26.4 °F 26.6 °F 75% 30.13 in 10.0 mi ESE 9.2 mph - N/A   Overcast
7:55 PM 33.8 °F 25.8 °F 26.6 °F 75% 30.12 in 10.0 mi ESE 10.4 mph - N/A   Overcast
8:15 PM 33.8 °F 24.8 °F 28.4 °F 81% 30.12 in 10.0 mi ESE 12.7 mph - N/A   Overcast
8:35 PM 33.8 °F 25.3 °F 26.6 °F 75% 30.12 in 10.0 mi SE 11.5 mph - N/A   Mostly Cloudy
8:55 PM 33.8 °F 24.8 °F 26.6 °F 75% 30.11 in 10.0 mi ESE 12.7 mph - N/A   Mostly Cloudy
9:15 PM 33.8 °F 25.8 °F 26.6 °F 75% 30.10 in 10.0 mi ESE 10.4 mph - N/A   Mostly Cloudy
9:35 PM 33.8 °F 25.8 °F 26.6 °F 75% 30.09 in 10.0 mi East 10.4 mph - N/A   Partly Cloudy
9:55 PM 33.8 °F 26.4 °F 26.6 °F 75% 30.08 in 9.0 mi East 9.2 mph - N/A   Mostly Cloudy
10:15 PM 33.8 °F 24.3 °F 28.4 °F 81% 30.07 in 8.0 mi East 13.8 mph - N/A   Overcast
10:35 PM 32.0 °F 23.0 °F 28.4 °F 87% 30.06 in 8.0 mi East 11.5 mph - N/A   Scattered Clouds
10:55 PM 32.0 °F 22.5 °F 28.4 °F 87% 30.05 in 5.0 mi East 12.7 mph - N/A   Mostly Cloudy
11:15 PM 32.0 °F 23.0 °F 28.4 °F 87% 30.05 in 8.0 mi East 11.5 mph - N/A   Overcast
11:35 PM 32.0 °F 24.2 °F 28.4 °F 87% 30.05 in 3.0 mi ENE 9.2 mph - N/A   Overcast
11:55 PM 30.2 °F 22.6 °F 30.2 °F 100% 30.04 in 2.5 mi ENE 8.1 mph - N/A   Overcast